[[{"header":{"parameterUnit":"m.s-1","parameterCategory":1,"la1":30.2991,"la2":30.254,"lo1":-89.0895,"lo2":-89.0444,"dy":0.0017,"dx":0.0017,"nx":28,"ny":28,"refTime":"2025-11-06T03:00:00:Z","depth":0,"parameterNumber":2,"parameterNumberName":"U-component_of_WINDS"},"data":[0,0,0,0,0,0,0,0,0,0,0,0,0,0,0,0,0,0,0,0,0,0,0,0,0,0,0,0,0,0,0,0,0,0,0,0,0,0,0,0,0,0,0,0,0,0,0,0,0,0,0,0,0,0,0,0,0,0,-0.951,-0.951,0,-0.949,-0.949,-0.949,-0.9505,-0.9506,-0.9507,-0.9507,-0.9485,-0.9484,-0.9482,0,0,0,0,0,0,0,0,0,0,0,0,0,-0.9558,-0.9557,-0.951,-0.951,-0.9509,-0.949,-0.949,-0.949,-0.9505,-0.9506,-0.9507,-0.9508,-0.9485,-0.9484,-0.9482,0,0,0,0,0,0,0,0,0,0,0,0,0,-0.9537,-0.9556,-0.951,-0.9515,-0.9515,-0.949,-0.949,-0.949,-0.9505,-0.9506,-0.9507,-0.9508,-0.9486,-0.9484,-0.9482,-0.9451,0,0,-0.9477,-0.9476,0,0,0,0,0,0,0,0,-0.9538,-0.9536,-0.9514,-0.9514,-0.9515,-0.9501,-0.9499,-0.9477,-0.9505,-0.9509,-0.9507,-0.9509,-0.9489,-0.9487,-0.9481,-0.945,-0.9449,-0.9476,-0.9475,-0.9474,-0.9474,0,0,0,0,0,0,0,-0.954,-0.9536,-0.9502,-0.9514,-0.9514,-0.9517,-0.9515,-0.9495,-0.9494,-0.9509,-0.951,-0.9507,-0.949,-0.9483,-0.9481,-0.9448,-0.9476,-0.9475,-0.9474,-0.9473,-0.9389,-0.9387,0,0,0,0,0,0,-0.9541,-0.9538,-0.9503,-0.9501,-0.9529,-0.9515,-0.9513,-0.9505,-0.9494,-0.9493,-0.9506,-0.9508,-0.9486,-0.9483,-0.948,-0.9441,-0.9474,-0.9473,-0.9472,-0.939,-0.9388,-0.9387,0,0,0,0,0,0,-0.9542,-0.9538,-0.9503,-0.952,-0.9516,-0.9514,-0.9503,-0.9504,-0.9497,-0.9492,-0.9492,-0.95,-0.9486,-0.9483,-0.9458,-0.9441,-0.9472,-0.947,-0.9391,-0.9389,-0.9388,-0.9364,0,0,0,0,0,0,-0.9543,-0.9538,-0.9527,-0.9519,-0.9515,-0.9482,-0.9503,-0.9503,-0.9494,-0.9496,-0.9486,-0.9486,-0.9487,-0.946,-0.9456,-0.9439,-0.9469,-0.9392,-0.939,-0.9388,-0.9367,-0.9362,-0.9358,0,0,0,0,0,-0.9545,-0.9521,-0.9526,-0.9522,-0.9501,-0.9481,-0.9478,-0.9481,-0.9493,-0.9481,-0.9478,-0.9486,-0.9444,-0.9458,-0.9453,-0.9435,-0.9394,-0.9391,-0.9388,-0.9368,-0.9363,-0.9358,0,0,0,0,0,0,-0.9525,-0.952,-0.9526,-0.9499,-0.949,-0.9484,-0.9469,-0.9475,-0.9463,-0.9465,-0.9468,-0.9466,-0.9439,-0.9435,-0.9451,-0.9403,-0.942,-0.9417,-0.9407,-0.9402,-0.9398,-0.9398,-0.9467,0,0,0,0,0,-0.9518,-0.9504,-0.9499,-0.9476,-0.9471,-0.9471,-0.9462,-0.9465,-0.9457,-0.9453,-0.9448,-0.9438,-0.9423,-0.9412,-0.9398,-0.9367,-0.9364,-0.9352,-0.9348,-0.9344,-0.934,-0.9322,-0.9316,-0.9379,-0.9379,-0.9379,0,0,-0.9502,-0.9498,-0.9488,-0.9472,-0.9466,-0.9449,-0.9468,-0.945,-0.9437,-0.945,-0.9426,-0.9422,-0.9411,-0.9382,-0.937,-0.9378,-0.9323,-0.9341,-0.9338,-0.9336,-0.9319,-0.9313,-0.9307,-0.9377,-0.9377,-0.9377,0,0,-0.9465,-0.9461,-0.944,-0.9434,-0.9424,-0.9424,-0.9419,-0.9412,-0.941,-0.9386,-0.9394,-0.938,-0.9353,-0.9345,-0.9337,-0.9297,-0.9303,-0.9292,-0.9269,-0.9251,-0.9246,-0.9242,-0.9225,-0.922,-0.9289,-0.9288,-0.9288,0,-0.9447,-0.9423,-0.9428,-0.941,-0.9401,-0.9413,-0.9391,-0.9384,-0.9371,-0.9364,-0.9374,-0.9341,-0.9335,-0.9303,-0.9293,-0.9288,-0.9281,-0.9292,-0.9247,-0.9242,-0.9238,-0.9223,-0.9217,-0.9287,-0.9287,-0.9287,-0.9287,0,-0.94,-0.9383,-0.9368,-0.9354,-0.9345,-0.9324,-0.9325,-0.9315,-0.9319,-0.9317,-0.9292,-0.9285,-0.9269,-0.9262,-0.9266,-0.9231,-0.9236,-0.9247,-0.9263,-0.9231,-0.9216,-0.921,-0.9285,-0.9285,-0.9286,-0.9286,0,0,-0.9349,-0.9339,-0.9332,-0.9326,-0.9317,-0.9304,-0.9284,-0.9269,-0.9258,-0.9249,-0.9231,-0.9208,-0.9218,-0.9209,-0.9212,-0.9196,-0.9162,-0.9208,-0.9208,-0.9198,-0.9121,-0.9112,-0.9105,-0.9167,-0.9166,-0.9165,-0.9121,0,-0.9309,-0.9275,-0.9279,-0.9246,-0.9229,-0.924,-0.9223,-0.9214,-0.9212,-0.9198,-0.9196,-0.9179,-0.9193,-0.9188,-0.9173,-0.9169,-0.9146,-0.9173,-0.9149,-0.9148,-0.9149,-0.9098,-0.9088,-0.9047,-0.9116,-0.9115,-0.9114,0,-0.9259,-0.9247,-0.9213,-0.9205,-0.9198,-0.9182,-0.9168,-0.9155,-0.9145,-0.9145,-0.9135,-0.914,-0.9119,-0.9138,-0.9107,-0.9125,-0.9116,-0.9112,-0.9111,-0.9107,-0.9127,-0.909,-0.9034,-0.9027,-0.9106,-0.9106,-0.9107,0,-0.9222,-0.9199,-0.9174,-0.9169,-0.916,-0.9148,-0.9143,-0.9135,-0.9125,-0.9113,-0.9106,-0.9092,-0.9083,-0.9071,-0.9071,-0.9085,-0.904,-0.9059,-0.9037,-0.9037,-0.9025,-0.9025,-0.8965,-0.9023,-0.9023,-0.9023,-0.9023,0,-0.9177,-0.9155,-0.9158,-0.9142,-0.9117,-0.9122,-0.9097,-0.9094,-0.9086,-0.9069,-0.9078,-0.9062,-0.9066,-0.9049,-0.905,-0.9023,-0.902,-0.9018,-0.9018,-0.9016,-0.9016,-0.9008,-0.901,-0.9021,-0.9022,-0.9022,-0.9022,0,-0.9131,-0.9133,-0.9106,-0.91,-0.9098,-0.9079,-0.9073,-0.9058,-0.9058,-0.9037,-0.9032,-0.903,-0.9011,-0.9012,-0.899,-0.8991,-0.8957,-0.8962,-0.8961,-0.8961,-0.8938,-0.8939,-0.8868,-0.8858,-0.8925,-0.8924,-0.8924,0,-0.9101,-0.9084,-0.9076,-0.9066,-0.9061,-0.9044,-0.9035,-0.9039,-0.9028,-0.9015,-0.9001,-0.8984,-0.897,-0.8939,-0.8935,-0.8919,-0.8921,-0.8898,-0.8919,-0.8917,-0.8918,-0.8918,-0.8916,-0.8893,-0.8892,-0.8891,-0.8891,0,-0.9047,-0.9048,-0.9034,-0.902,-0.9008,-0.8997,-0.8987,-0.8978,-0.8981,-0.8968,-0.8949,-0.8938,-0.8917,-0.8898,-0.8882,-0.8877,-0.8883,-0.8885,-0.8878,-0.8875,-0.8874,-0.8872,-0.8947,-0.8886,-0.8886,-0.8887,-0.8887,-0.8887,-0.9007,-0.8991,-0.8983,-0.8967,-0.896,-0.895,-0.8935,-0.8932,-0.8917,-0.89,-0.8903,-0.8882,-0.8872,-0.8851,-0.8844,-0.8827,-0.8835,-0.8826,-0.8823,-0.8821,-0.8817,-0.8879,-0.8824,-0.8824,-0.8824,-0.8825,-0.8825,0,-0.8951,-0.8946,-0.8931,-0.8917,-0.8903,-0.8913,-0.8902,-0.8889,-0.8871,-0.8861,-0.8847,-0.8825,-0.8807,-0.8802,-0.8785,-0.8772,-0.8774,-0.8767,-0.8767,-0.8765,-0.8812,-0.8818,-0.8765,-0.8765,-0.8765,-0.8765,-0.8765,-0.8765,-0.892,-0.8895,-0.8895,-0.8865,-0.8861,-0.884,-0.8833,-0.8823,-0.8815,-0.879,-0.8776,-0.8773,-0.8765,-0.8747,-0.8731,-0.8729,-0.8722,-0.8712,-0.8712,-0.8756,-0.8762,-0.8767,-0.8773,-0.8711,-0.8711,-0.8666,-0.8666,-0.8665]},{"header":{"parameterUnit":"m.s-1","parameterCategory":1,"la1":30.2991,"la2":30.254,"lo1":-89.0895,"lo2":-89.0444,"dy":0.0017,"dx":0.0017,"nx":28,"ny":28,"refTime":"2025-11-06T03:00:00:Z","depth":0,"parameterNumber":3,"parameterNumberName":"V-component_of_WINDS"},"data":[0,0,0,0,0,0,0,0,0,0,0,0,0,0,0,0,0,0,0,0,0,0,0,0,0,0,0,0,0,0,0,0,0,0,0,0,0,0,0,0,0,0,0,0,0,0,0,0,0,0,0,0,0,0,0,0,0,0,3.8947,3.8948,0,3.8987,3.8987,3.8988,3.8968,3.8967,3.8966,3.8965,3.9003,3.9005,3.9007,0,0,0,0,0,0,0,0,0,0,0,0,0,3.8853,3.8855,3.8947,3.8948,3.8948,3.8987,3.8987,3.8988,3.8968,3.8967,3.8966,3.8965,3.9002,3.9005,3.9007,0,0,0,0,0,0,0,0,0,0,0,0,0,3.8893,3.8855,3.8947,3.8943,3.8943,3.8987,3.8987,3.8988,3.8968,3.8967,3.8965,3.8964,3.9002,3.9005,3.9007,3.9056,0,0,3.9016,3.9018,0,0,0,0,0,0,0,0,3.8891,3.8897,3.8943,3.8944,3.8944,3.8971,3.8968,3.9011,3.8969,3.8959,3.8965,3.8963,3.8994,3.8997,3.9008,3.9058,3.906,3.9017,3.9019,3.902,3.9021,0,0,0,0,0,0,0,3.8888,3.8895,3.8963,3.8944,3.8944,3.8939,3.8943,3.8976,3.8984,3.896,3.8958,3.8963,3.8993,3.9005,3.9008,3.906,3.9017,3.9019,3.9021,3.9022,3.9153,3.9154,0,0,0,0,0,0,3.8886,3.8893,3.8962,3.8964,3.8913,3.8942,3.8946,3.8964,3.8984,3.8985,3.8965,3.8962,3.9001,3.9005,3.901,3.9069,3.902,3.9023,3.9024,3.9151,3.9153,3.9155,0,0,0,0,0,0,3.8884,3.8892,3.896,3.8928,3.8936,3.8945,3.8965,3.8965,3.8977,3.8988,3.8989,3.8975,3.9,3.9006,3.9045,3.907,3.9024,3.9027,3.9149,3.9152,3.9154,3.9187,0,0,0,0,0,0,3.8881,3.8892,3.8911,3.8929,3.8938,3.8996,3.8966,3.8967,3.8982,3.898,3.8998,3.8999,3.8999,3.9041,3.9048,3.9073,3.9029,3.9147,3.915,3.9153,3.9184,3.919,3.9196,0,0,0,0,0,3.8878,3.8918,3.8912,3.892,3.8962,3.8997,3.9002,3.9002,3.8984,3.9004,3.901,3.8999,3.9066,3.9045,3.9053,3.9079,3.9145,3.9149,3.9153,3.9181,3.9189,3.9196,0,0,0,0,0,0,3.8902,3.892,3.8914,3.8961,3.8978,3.8994,3.9018,3.901,3.9032,3.9028,3.9025,3.903,3.9071,3.9079,3.9055,3.9128,3.9103,3.9108,3.9121,3.9129,3.9135,3.9133,3.9031,0,0,0,0,0,3.8913,3.894,3.8954,3.8994,3.9003,3.9009,3.9024,3.9022,3.9039,3.9046,3.9056,3.9072,3.9097,3.9113,3.9136,3.9184,3.9188,3.9206,3.9212,3.9217,3.9222,3.9249,3.9257,3.9168,3.9168,3.9168,0,0,3.8936,3.8949,3.8966,3.9,3.9012,3.904,3.9015,3.9046,3.9066,3.905,3.9089,3.9096,3.9114,3.9158,3.9178,3.9166,3.9248,3.9222,3.9226,3.9229,3.9254,3.9262,3.927,3.917,3.917,3.9169,0,0,3.8991,3.9004,3.9039,3.9053,3.9072,3.9076,3.9084,3.9102,3.9107,3.9145,3.9134,3.9158,3.92,3.9214,3.9226,3.9287,3.9277,3.9294,3.9327,3.9352,3.936,3.9366,3.9388,3.9396,3.9299,3.9299,3.9299,0,3.9017,3.9059,3.9058,3.909,3.9105,3.9092,3.9127,3.914,3.9166,3.9177,3.9163,3.9216,3.9227,3.9275,3.929,3.93,3.9309,3.9293,3.9359,3.9365,3.9371,3.9392,3.94,3.9301,3.9301,3.9301,3.9301,0,3.909,3.9119,3.9145,3.9172,3.9189,3.9222,3.9226,3.9244,3.924,3.9245,3.9284,3.9297,3.9323,3.9334,3.933,3.9381,3.9373,3.9359,3.9334,3.9381,3.9401,3.941,3.9304,3.9304,3.9303,3.9302,0,0,3.9162,3.9188,3.9198,3.921,3.9231,3.9253,3.9285,3.9311,3.9327,3.9345,3.9373,3.9409,3.9396,3.941,3.9408,3.943,3.9478,3.9414,3.9414,3.9426,3.9536,3.9547,3.9557,3.9472,3.9473,3.9474,3.9535,0,3.922,3.9278,3.9278,3.9331,3.9358,3.9347,3.9375,3.939,3.9395,3.9419,3.9424,3.945,3.9431,3.944,3.9461,3.9468,3.9501,3.9463,3.9497,3.9498,3.9494,3.9567,3.9579,3.9635,3.9542,3.9544,3.9545,0,3.9296,3.9318,3.9374,3.9391,3.9403,3.9428,3.9452,3.9474,3.9492,3.9494,3.951,3.9504,3.9536,3.951,3.9555,3.953,3.9543,3.9548,3.955,3.9554,3.9525,3.9574,3.9653,3.9662,3.9557,3.9556,3.9555,0,3.9345,3.9388,3.9427,3.9437,3.9458,3.9477,3.9486,3.9502,3.9517,3.9538,3.9548,3.9572,3.9585,3.9603,3.9604,3.9585,3.965,3.9623,3.9653,3.9653,3.9668,3.9667,3.9751,3.9675,3.9674,3.9674,3.9674,0,3.941,3.9445,3.9449,3.9474,3.9512,3.9511,3.9549,3.9557,3.9571,3.9596,3.9586,3.961,3.9609,3.9633,3.9633,3.9671,3.9676,3.9679,3.9679,3.9681,3.9681,3.969,3.9687,3.9677,3.9676,3.9676,3.9675,0,3.9471,3.9476,3.9518,3.9534,3.9539,3.9567,3.9581,3.9603,3.9608,3.964,3.9647,3.9654,3.9681,3.9683,3.9715,3.9715,3.9761,3.9756,3.9756,3.9755,3.9785,3.9783,3.9879,3.9892,3.9806,3.9807,3.9808,0,3.9514,3.954,3.956,3.9576,3.9587,3.9614,3.963,3.9629,3.9646,3.9668,3.9688,3.9715,3.9737,3.9781,3.9789,3.9813,3.9809,3.9841,3.9813,3.9814,3.9811,3.981,3.9813,3.9847,3.9848,3.9849,3.985,0,3.9588,3.9589,3.9613,3.9638,3.9658,3.9677,3.9695,3.9709,3.9711,3.973,3.9759,3.9776,3.9809,3.9836,3.9859,3.9868,3.986,3.9859,3.9867,3.9869,3.9869,3.987,3.9772,3.9857,3.9856,3.9855,3.9855,3.9855,3.9642,3.9665,3.9683,3.971,3.9724,3.9741,3.9763,3.977,3.9794,3.9822,3.9819,3.9851,3.9867,3.9899,3.9909,3.9934,3.9923,3.9935,3.9938,3.9941,3.9945,3.9864,3.9938,3.9938,3.9938,3.9938,3.9938,0,3.9717,3.9727,3.9752,3.9778,3.98,3.979,3.9809,3.9828,3.9856,3.9872,3.9894,3.9926,3.9953,3.9962,3.9987,4.0005,4.0002,4.0012,4.0011,4.0014,3.9953,3.9944,4.0014,4.0014,4.0014,4.0014,4.0014,4.0014,3.9758,3.9798,3.9801,3.9846,3.9856,3.9888,3.99,3.9916,3.9929,3.9966,3.9988,3.9994,4.0008,4.0034,4.0057,4.0059,4.0069,4.0082,4.0082,4.0025,4.0018,4.001,4.0002,4.0084,4.0084,4.0141,4.0141,4.0142]}]]